Regional Weather Roundup
Issued by NWS

Home | Current Version | Previous Version | Graphics & Text | Print | Product List | Glossary On
Versions: 1 2 3 4 5 6 7 8 9 10 11 12 13 14 15 16 17 18 19 20 21 22 23 24 25 26 27 28 29 30 31 32 33 34 35 36 37 38 39 40 41 42 43 44 45 46 47 48 49 50
000
ASUS43 KBIS 171110
RWRND

NORTH DAKOTA REGIONAL WEATHER ROUNDUP
NATIONAL WEATHER SERVICE BISMARCK ND
500 AM CST SUN DEC 17 2017

NOTE: "FAIR" INDICATES FEW OR NO CLOUDS BELOW 12,000 FEET WITH NO
SIGNIFICANT WEATHER AND/OR OBSTRUCTIONS TO VISIBILITY.


NDZ001>003-009>011-017-171200-
NORTHWEST NORTH DAKOTA

CITY           SKY/WX    TMP DP  RH WIND       PRES   REMARKS
WILLISTON      CLEAR     18  16  92 SW3       29.99F
MINOT          CLEAR     22  16  78 SW12      29.98S WCI  10
MINOT AFB      CLEAR     19  14  81 W8        29.96F WCI   9
$$

NDZ018>021-031>035-040>046-171200-
SOUTHWEST NORTH DAKOTA

CITY           SKY/WX    TMP DP  RH WIND       PRES   REMARKS
BISMARCK       CLOUDY    23  19  85 W3        30.03F
DICKINSON      CLOUDY    17  14  88 W6        29.98S WCI   9
GARRISON         N/A     19  15  84 W5        29.99F WCI  12
HETTINGER ARPT CLOUDY    17  15  92 CALM      30.02F
$$

NDZ004>008-012>016-024-026-027-054-171200-
NORTHEAST NORTH DAKOTA

CITY           SKY/WX    TMP DP  RH WIND       PRES   REMARKS
GRAND FORKS    CLOUDY    11   9  92 S7        30.01F WCI   0
GRND FRKS AFB  CLOUDY    14  11  89 SW8       29.99F WCI   3
DEVILS LAKE    CLOUDY    15  13  91 W3        29.98F
$$

NDZ022-023-025-028>030-036>039-047>053-171200-
SOUTHEAST NORTH DAKOTA

CITY           SKY/WX    TMP DP  RH WIND       PRES   REMARKS
FARGO          PTCLDY    24  22  91 SE7       30.04S WCI  16
JAMESTOWN      CLEAR     24  22  91 W5        30.01S WCI  18
$$




USA.gov is the U.S. government's official web portal to all federal, state and local government web resources and services.